Time,TemperatureF,DewpointF,PressureIn,WindDirection,WindDirectionDegrees,WindSpeedMPH,WindSpeedGustMPH,Humidity,HourlyPrecipIn,Conditions,Clouds,dailyrainin,SoftwareType,DateUTC
2013-09-02 00:00:00,80.2,80.2,29.94,SW,224,12.0,20.0,100,0.00,,---,0.00,VWS V14.01,2013-09-02 04:00:00,
2013-09-02 00:01:00,80.1,80.1,29.94,SW,223,9.0,20.0,100,0.00,,---,0.00,VWS V14.01,2013-09-02 04:01:00,
2013-09-02 00:02:00,80.1,80.1,29.94,SW,221,15.0,15.0,100,0.00,,---,0.00,VWS V14.01,2013-09-02 04:02:00,
2013-09-02 00:07:00,80.1,80.1,29.94,SW,227,14.0,19.0,100,0.00,,---,0.00,VWS V14.01,2013-09-02 04:07:00,
2013-09-02 00:12:00,80.1,80.1,29.94,SW,229,9.0,19.0,100,0.00,,---,0.00,VWS V14.01,2013-09-02 04:12:00,
2013-09-02 00:17:00,80.1,80.1,29.94,SW,235,19.0,19.0,100,0.00,,---,0.00,VWS V14.01,2013-09-02 04:17:00,
2013-09-02 00:22:00,80.0,80.0,29.94,SW,229,17.0,19.0,100,0.00,,---,0.00,VWS V14.01,2013-09-02 04:22:00,
2013-09-02 00:27:00,80.0,80.0,29.93,SW,224,13.0,19.0,100,0.00,,---,0.00,VWS V14.01,2013-09-02 04:27:00,
2013-09-02 00:30:00,79.9,79.9,29.93,SW,224,15.0,19.0,100,0.00,,---,0.00,VWS V14.01,2013-09-02 04:30:00,
2013-09-02 00:32:00,79.9,79.9,29.93,SW,230,15.0,19.0,100,0.00,,---,0.00,VWS V14.01,2013-09-02 04:32:00,
2013-09-02 00:37:00,79.9,79.9,29.93,SW,218,9.0,20.0,100,0.00,,---,0.00,VWS V14.01,2013-09-02 04:37:00,
2013-09-02 00:42:00,79.9,79.9,29.94,SW,236,13.0,20.0,100,0.00,,---,0.00,VWS V14.01,2013-09-02 04:42:00,
2013-09-02 00:47:00,79.9,79.9,29.94,SW,226,19.0,20.0,100,0.00,,---,0.00,VWS V14.01,2013-09-02 04:47:00,
2013-09-02 00:52:00,79.9,79.9,29.94,SW,227,16.0,20.0,100,0.00,,---,0.00,VWS V14.01,2013-09-02 04:52:00,
2013-09-02 00:57:00,79.9,79.9,29.93,SW,231,11.0,20.0,100,0.00,,---,0.00,VWS V14.01,2013-09-02 04:57:00,
2013-09-02 01:00:00,79.9,79.9,29.94,SW,231,17.0,20.0,100,0.00,,---,0.00,VWS V14.01,2013-09-02 05:00:00,
2013-09-02 01:02:00,79.9,79.9,29.94,WSW,237,15.0,18.0,100,0.00,,---,0.00,VWS V14.01,2013-09-02 05:02:00,
2013-09-02 01:07:00,79.9,79.9,29.94,WSW,238,19.0,21.0,100,0.00,,---,0.00,VWS V14.01,2013-09-02 05:07:00,
2013-09-02 01:12:00,79.9,79.9,29.94,SW,234,10.0,21.0,100,0.00,,---,0.00,VWS V14.01,2013-09-02 05:12:00,
2013-09-02 01:17:00,79.9,79.9,29.94,WSW,237,13.0,21.0,100,0.00,,---,0.00,VWS V14.01,2013-09-02 05:17:00,
2013-09-02 01:22:00,79.9,79.9,29.94,WSW,240,15.0,21.0,100,0.00,,---,0.00,VWS V14.01,2013-09-02 05:22:00,
2013-09-02 01:27:00,80.0,80.0,29.94,SW,234,14.0,21.0,100,0.00,,---,0.00,VWS V14.01,2013-09-02 05:27:00,
2013-09-02 01:30:00,80.0,80.0,29.94,SW,230,19.0,21.0,100,0.00,,---,0.00,VWS V14.01,2013-09-02 05:30:00,
2013-09-02 01:32:00,80.0,80.0,29.94,SW,226,14.0,19.0,100,0.00,,---,0.00,VWS V14.01,2013-09-02 05:32:00,
2013-09-02 01:37:00,80.0,80.0,29.93,SW,230,13.0,23.0,100,0.00,,---,0.00,VWS V14.01,2013-09-02 05:37:00,
2013-09-02 01:42:00,80.0,80.0,29.93,SW,232,14.0,23.0,100,0.00,,---,0.00,VWS V14.01,2013-09-02 05:42:00,
2013-09-02 01:47:00,79.9,79.9,29.93,WSW,241,15.0,23.0,100,0.00,,---,0.00,VWS V14.01,2013-09-02 05:47:00,
2013-09-02 01:52:00,79.9,79.9,29.94,SW,236,18.0,23.0,100,0.00,,---,0.00,VWS V14.01,2013-09-02 05:52:00,
2013-09-02 01:57:00,79.9,79.9,29.94,SW,235,16.0,23.0,100,0.00,,---,0.00,VWS V14.01,2013-09-02 05:57:00,
2013-09-02 02:00:00,79.9,79.9,29.93,WSW,248,15.0,23.0,100,0.00,,---,0.00,VWS V14.01,2013-09-02 06:00:00,
2013-09-02 02:02:00,79.9,79.9,29.94,WSW,247,20.0,20.0,100,0.00,,---,0.00,VWS V14.01,2013-09-02 06:02:00,
2013-09-02 02:07:00,79.9,79.9,29.93,WSW,249,14.0,20.0,100,0.00,,---,0.00,VWS V14.01,2013-09-02 06:07:00,
2013-09-02 02:12:00,80.0,80.0,29.93,SW,230,13.0,20.0,100,0.00,,---,0.00,VWS V14.01,2013-09-02 06:12:00,
2013-09-02 02:16:00,80.0,80.0,29.92,WSW,243,12.0,20.0,100,0.00,,---,0.00,VWS V14.01,2013-09-02 06:16:00,
2013-09-02 02:21:00,79.9,79.9,29.92,SW,227,9.0,20.0,100,0.00,,---,0.00,VWS V14.01,2013-09-02 06:21:00,
2013-09-02 02:26:00,79.9,79.9,29.92,SW,235,15.0,20.0,100,0.00,,---,0.00,VWS V14.01,2013-09-02 06:26:00,
2013-09-02 02:30:00,79.9,79.9,29.91,SW,228,10.0,20.0,100,0.00,,---,0.00,VWS V14.01,2013-09-02 06:30:00,
2013-09-02 02:31:00,79.9,79.9,29.91,WSW,240,16.0,16.0,100,0.00,,---,0.00,VWS V14.01,2013-09-02 06:31:00,
2013-09-02 02:36:00,79.8,79.8,29.91,SW,219,11.0,18.0,100,0.00,,---,0.00,VWS V14.01,2013-09-02 06:36:00,
2013-09-02 02:41:00,79.8,79.8,29.91,SW,227,14.0,19.0,100,0.00,,---,0.00,VWS V14.01,2013-09-02 06:41:00,
2013-09-02 02:46:00,79.8,79.8,29.90,SW,222,11.0,22.0,100,0.00,,---,0.00,VWS V14.01,2013-09-02 06:46:00,
2013-09-02 02:51:00,79.8,79.8,29.90,SW,229,17.0,22.0,100,0.00,,---,0.00,VWS V14.01,2013-09-02 06:51:00,
2013-09-02 02:56:00,79.7,79.7,29.90,SW,227,15.0,22.0,100,0.00,,---,0.00,VWS V14.01,2013-09-02 06:56:00,
2013-09-02 03:00:00,79.7,79.7,29.90,WSW,237,18.0,22.0,100,0.00,,---,0.00,VWS V14.01,2013-09-02 07:00:00,
2013-09-02 03:01:00,79.7,79.7,29.90,SW,227,15.0,18.0,100,0.00,,---,0.00,VWS V14.01,2013-09-02 07:01:00,
2013-09-02 03:06:00,79.7,79.7,29.90,WSW,237,22.0,22.0,100,0.00,,---,0.00,VWS V14.01,2013-09-02 07:06:00,
2013-09-02 03:11:00,79.8,79.8,29.90,WSW,246,15.0,22.0,100,0.00,,---,0.00,VWS V14.01,2013-09-02 07:11:00,
2013-09-02 03:16:00,79.8,79.8,29.90,SW,224,12.0,22.0,100,0.00,,---,0.00,VWS V14.01,2013-09-02 07:16:00,
2013-09-02 03:21:00,79.8,79.8,29.90,SW,222,15.0,22.0,100,0.00,,---,0.00,VWS V14.01,2013-09-02 07:21:00,
2013-09-02 03:26:00,79.7,79.7,29.90,SW,231,13.0,22.0,100,0.00,,---,0.00,VWS V14.01,2013-09-02 07:26:00,
2013-09-02 03:30:00,79.8,79.8,29.90,SW,230,13.0,22.0,100,0.00,,---,0.00,VWS V14.01,2013-09-02 07:30:00,
2013-09-02 03:31:00,79.8,79.8,29.90,SW,230,11.0,18.0,100,0.00,,---,0.00,VWS V14.01,2013-09-02 07:31:00,
2013-09-02 03:36:00,79.8,79.8,29.90,SW,234,17.0,20.0,100,0.00,,---,0.00,VWS V14.01,2013-09-02 07:36:00,
2013-09-02 03:41:00,79.8,79.8,29.90,SW,236,11.0,22.0,100,0.00,,---,0.00,VWS V14.01,2013-09-02 07:41:00,
2013-09-02 03:46:00,79.7,79.7,29.90,WSW,239,14.0,22.0,100,0.00,,---,0.00,VWS V14.01,2013-09-02 07:46:00,
2013-09-02 03:51:00,79.8,79.8,29.90,WSW,239,11.0,22.0,100,0.00,,---,0.00,VWS V14.01,2013-09-02 07:51:00,
2013-09-02 03:56:00,79.8,79.8,29.90,SW,222,11.0,22.0,100,0.00,,---,0.00,VWS V14.01,2013-09-02 07:56:00,
2013-09-02 04:00:00,79.8,79.8,29.90,WSW,238,11.0,22.0,100,0.00,,---,0.00,VWS V14.01,2013-09-02 08:00:00,
2013-09-02 04:01:00,79.7,79.7,29.89,SW,232,17.0,17.0,100,0.00,,---,0.00,VWS V14.01,2013-09-02 08:01:00,
2013-09-02 04:06:00,79.8,79.8,29.89,SW,230,14.0,18.0,100,0.00,,---,0.00,VWS V14.01,2013-09-02 08:06:00,
2013-09-02 04:11:00,79.8,79.8,29.89,SW,233,14.0,22.0,100,0.00,,---,0.00,VWS V14.01,2013-09-02 08:11:00,
2013-09-02 04:16:00,79.8,79.8,29.89,SW,228,13.0,22.0,100,0.00,,---,0.00,VWS V14.01,2013-09-02 08:16:00,
2013-09-02 04:21:00,79.8,79.8,29.90,WSW,237,13.0,22.0,100,0.00,,---,0.00,VWS V14.01,2013-09-02 08:21:00,
2013-09-02 04:26:00,79.8,79.8,29.90,SW,226,12.0,22.0,100,0.00,,---,0.00,VWS V14.01,2013-09-02 08:26:00,
2013-09-02 04:30:00,79.8,79.8,29.90,SW,236,12.0,22.0,100,0.00,,---,0.00,VWS V14.01,2013-09-02 08:30:00,
2013-09-02 04:31:00,79.8,79.8,29.90,SW,235,13.0,22.0,100,0.00,,---,0.00,VWS V14.01,2013-09-02 08:31:00,
2013-09-02 04:36:00,79.8,79.8,29.90,SW,236,16.0,22.0,100,0.00,,---,0.00,VWS V14.01,2013-09-02 08:36:00,
2013-09-02 04:41:00,79.8,79.8,29.89,WSW,238,11.0,22.0,100,0.00,,---,0.00,VWS V14.01,2013-09-02 08:41:00,
2013-09-02 04:46:00,79.8,79.8,29.89,SW,233,14.0,22.0,100,0.00,,---,0.00,VWS V14.01,2013-09-02 08:46:00,
2013-09-02 04:51:00,79.8,79.8,29.89,SW,223,16.0,22.0,100,0.00,,---,0.00,VWS V14.01,2013-09-02 08:51:00,
2013-09-02 04:56:00,79.8,79.8,29.89,SW,222,16.0,22.0,100,0.00,,---,0.00,VWS V14.01,2013-09-02 08:56:00,
2013-09-02 05:00:00,79.8,79.8,29.89,SW,230,14.0,23.0,100,0.00,,---,0.00,VWS V14.01,2013-09-02 09:00:00,
2013-09-02 05:01:00,79.8,79.8,29.89,SW,226,12.0,18.0,100,0.00,,---,0.00,VWS V14.01,2013-09-02 09:01:00,
2013-09-02 05:06:00,79.8,79.8,29.89,SW,236,20.0,20.0,100,0.00,,---,0.00,VWS V14.01,2013-09-02 09:06:00,
2013-09-02 05:11:00,79.8,79.8,29.89,SW,229,14.0,21.0,100,0.00,,---,0.00,VWS V14.01,2013-09-02 09:11:00,
2013-09-02 05:16:00,79.8,79.8,29.89,WSW,237,13.0,28.0,100,0.00,,---,0.00,VWS V14.01,2013-09-02 09:16:00,
2013-09-02 05:21:00,79.8,79.8,29.90,SW,235,16.0,28.0,100,0.00,,---,0.00,VWS V14.01,2013-09-02 09:21:00,
2013-09-02 05:26:00,79.8,79.8,29.90,SW,231,17.0,28.0,100,0.00,,---,0.00,VWS V14.01,2013-09-02 09:26:00,
2013-09-02 05:30:00,79.9,79.9,29.90,WSW,238,11.0,28.0,100,0.00,,---,0.00,VWS V14.01,2013-09-02 09:30:00,
2013-09-02 05:31:00,79.8,79.8,29.90,SW,232,16.0,23.0,100,0.00,,---,0.00,VWS V14.01,2013-09-02 09:31:00,
2013-09-02 05:36:00,79.8,79.8,29.90,WSW,242,15.0,23.0,100,0.00,,---,0.00,VWS V14.01,2013-09-02 09:36:00,
2013-09-02 05:41:00,79.8,79.8,29.90,WSW,238,8.0,23.0,100,0.00,,---,0.00,VWS V14.01,2013-09-02 09:41:00,
2013-09-02 05:46:00,79.9,79.9,29.90,SW,234,8.0,23.0,100,0.00,,---,0.00,VWS V14.01,2013-09-02 09:46:00,
2013-09-02 05:51:00,79.9,79.9,29.90,WSW,244,9.0,23.0,100,0.00,,---,0.00,VWS V14.01,2013-09-02 09:51:00,
2013-09-02 05:56:00,79.8,79.8,29.90,WSW,242,8.0,23.0,100,0.00,,---,0.00,VWS V14.01,2013-09-02 09:56:00,
2013-09-02 06:00:00,79.9,79.9,29.90,WSW,238,14.0,23.0,100,0.00,,---,0.00,VWS V14.01,2013-09-02 10:00:00,
2013-09-02 06:01:00,79.9,79.9,29.90,WSW,254,15.0,18.0,100,0.00,,---,0.00,VWS V14.01,2013-09-02 10:01:00,
2013-09-02 06:06:00,79.9,79.9,29.90,WSW,240,12.0,18.0,100,0.00,,---,0.00,VWS V14.01,2013-09-02 10:06:00,
2013-09-02 06:11:00,79.9,79.9,29.90,SW,236,14.0,20.0,100,0.00,,---,0.00,VWS V14.01,2013-09-02 10:11:00,
2013-09-02 06:16:00,79.9,79.9,29.90,WSW,237,12.0,20.0,100,0.00,,---,0.00,VWS V14.01,2013-09-02 10:16:00,
2013-09-02 06:21:00,79.9,79.9,29.90,WSW,243,10.0,20.0,100,0.00,,---,0.00,VWS V14.01,2013-09-02 10:21:00,
2013-09-02 06:26:00,79.9,79.9,29.90,SW,236,14.0,20.0,100,0.00,,---,0.00,VWS V14.01,2013-09-02 10:26:00,
2013-09-02 06:30:00,79.9,79.9,29.91,WSW,238,15.0,20.0,100,0.00,,---,0.00,VWS V14.01,2013-09-02 10:30:00,
2013-09-02 06:31:00,79.9,79.9,29.90,WSW,238,13.0,16.0,100,0.00,,---,0.00,VWS V14.01,2013-09-02 10:31:00,
2013-09-02 06:36:00,80.0,80.0,29.91,WSW,245,9.0,16.0,100,0.00,,---,0.00,VWS V14.01,2013-09-02 10:36:00,
2013-09-02 06:41:00,80.0,80.0,29.91,WSW,241,8.0,16.0,100,0.00,,---,0.00,VWS V14.01,2013-09-02 10:41:00,
2013-09-02 06:46:00,80.1,80.1,29.92,West,277,16.0,17.0,100,0.00,,---,0.00,VWS V14.01,2013-09-02 10:46:00,
2013-09-02 06:51:00,79.6,79.6,29.92,NW,310,18.0,20.0,100,0.00,,---,0.00,VWS V14.01,2013-09-02 10:51:00,
2013-09-02 06:56:00,78.9,78.6,29.92,NW,315,10.0,20.0,99,0.00,,---,0.00,VWS V14.01,2013-09-02 10:56:00,
2013-09-02 07:00:00,78.4,78.4,29.92,NW,319,14.0,21.0,100,0.00,,---,0.00,VWS V14.01,2013-09-02 11:00:00,
2013-09-02 07:01:00,78.4,78.4,29.92,NW,321,16.0,16.0,100,0.00,,---,0.00,VWS V14.01,2013-09-02 11:01:00,
2013-09-02 07:06:00,78.0,78.0,29.92,NW,312,14.0,24.0,100,0.00,,---,0.00,VWS V14.01,2013-09-02 11:06:00,
2013-09-02 07:11:00,77.7,77.7,29.93,NW,306,25.0,25.0,100,0.00,,---,0.00,VWS V14.01,2013-09-02 11:11:00,
2013-09-02 07:16:00,77.2,77.2,29.94,WNW,300,17.0,25.0,100,0.16,,---,0.16,VWS V14.01,2013-09-02 11:16:00,
2013-09-02 07:21:00,76.8,76.8,29.96,NW,311,13.0,25.0,100,0.34,,---,0.34,VWS V14.01,2013-09-02 11:21:00,
2013-09-02 07:26:00,76.0,76.0,29.96,NW,312,10.0,25.0,100,0.60,,---,0.60,VWS V14.01,2013-09-02 11:26:00,
2013-09-02 07:30:00,75.6,75.6,29.94,NNW,345,10.0,25.0,100,0.83,,---,0.83,VWS V14.01,2013-09-02 11:30:00,
2013-09-02 07:31:00,75.6,75.6,29.94,NNW,344,6.0,10.0,100,0.84,,---,0.84,VWS V14.01,2013-09-02 11:31:00,
2013-09-02 07:36:00,75.2,75.2,29.95,NNW,330,9.0,12.0,100,0.92,,---,0.92,VWS V14.01,2013-09-02 11:36:00,
2013-09-02 07:41:00,75.0,75.0,29.97,WSW,257,10.0,12.0,100,0.97,,---,0.97,VWS V14.01,2013-09-02 11:41:00,
2013-09-02 07:46:00,74.5,74.5,29.96,North,11,8.0,14.0,100,1.09,,---,1.09,VWS V14.01,2013-09-02 11:46:00,
2013-09-02 07:51:00,74.0,74.0,29.95,NE,39,12.0,15.0,100,1.13,,---,0.00,VWS V14.01,2013-09-02 11:51:00,
2013-09-02 07:56:00,74.0,74.0,29.95,NE,39,11.0,15.0,100,1.17,,---,1.17,VWS V14.01,2013-09-02 11:56:00,
2013-09-02 08:00:00,74.0,74.0,29.96,NW,321,1.0,15.0,100,1.22,,---,1.22,VWS V14.01,2013-09-02 12:00:00,
2013-09-02 08:01:00,74.0,74.0,29.95,NW,322,0.0,1.0,100,1.22,,---,1.22,VWS V14.01,2013-09-02 12:01:00,
2013-09-02 08:06:00,73.9,73.9,29.95,East,83,0.0,2.0,100,1.24,,---,1.24,VWS V14.01,2013-09-02 12:06:00,
2013-09-02 08:11:00,73.9,73.9,29.96,SE,129,0.0,2.0,100,1.24,,---,1.24,VWS V14.01,2013-09-02 12:11:00,
2013-09-02 08:16:00,73.8,73.8,29.95,North,10,7.0,11.0,100,1.26,,---,1.26,VWS V14.01,2013-09-02 12:16:00,
2013-09-02 08:21:00,73.6,73.6,29.96,North,358,6.0,12.0,100,1.30,,---,1.30,VWS V14.01,2013-09-02 12:21:00,
2013-09-02 08:26:00,73.6,73.6,29.95,North,4,8.0,12.0,100,1.32,,---,1.32,VWS V14.01,2013-09-02 12:26:00,
2013-09-02 08:30:00,73.6,73.6,29.95,North,356,7.0,12.0,100,1.34,,---,1.34,VWS V14.01,2013-09-02 12:30:00,
2013-09-02 08:31:00,73.6,73.6,29.94,North,352,7.0,8.0,100,0.51,,---,1.34,VWS V14.01,2013-09-02 12:31:00,
2013-09-02 08:36:00,73.4,73.4,29.94,NNE,17,2.0,9.0,100,0.51,,---,1.34,VWS V14.01,2013-09-02 12:36:00,
2013-09-02 08:41:00,73.2,73.2,29.94,North,0,1.0,9.0,100,0.52,,---,1.35,VWS V14.01,2013-09-02 12:41:00,
2013-09-02 08:46:00,73.1,73.1,29.94,NNW,344,2.0,9.0,100,0.52,,---,1.35,VWS V14.01,2013-09-02 12:46:00,
2013-09-02 08:51:00,73.2,73.2,29.94,NNW,334,0.0,9.0,100,0.52,,---,1.35,VWS V14.01,2013-09-02 12:51:00,
2013-09-02 08:56:00,73.2,73.2,29.94,NNW,334,0.0,9.0,100,0.52,,---,1.35,VWS V14.01,2013-09-02 12:56:00,
2013-09-02 09:00:00,73.2,73.2,29.93,NNW,334,0.0,9.0,100,0.52,,---,1.35,VWS V14.01,2013-09-02 13:00:00,
2013-09-02 09:01:00,73.2,73.2,29.94,NNW,334,0.0,2.0,100,0.13,,---,1.35,VWS V14.01,2013-09-02 13:01:00,
2013-09-02 09:06:00,73.4,73.4,29.94,NNW,334,0.0,2.0,100,0.13,,---,1.35,VWS V14.01,2013-09-02 13:06:00,
2013-09-02 09:11:00,73.5,73.5,29.95,NNW,334,0.0,2.0,100,0.13,,---,1.35,VWS V14.01,2013-09-02 13:11:00,
2013-09-02 09:16:00,73.5,73.5,29.94,NNW,334,1.0,2.0,100,0.14,,---,1.36,VWS V14.01,2013-09-02 13:16:00,
2013-09-02 09:21:00,73.7,73.7,29.95,NW,315,1.0,5.0,100,0.14,,---,1.36,VWS V14.01,2013-09-02 13:21:00,
2013-09-02 09:26:00,73.8,73.8,29.95,West,268,0.0,5.0,100,0.18,,---,1.40,VWS V14.01,2013-09-02 13:26:00,
2013-09-02 09:30:00,73.9,73.9,29.94,SW,236,8.0,10.0,100,0.24,,---,1.46,VWS V14.01,2013-09-02 13:30:00,
2013-09-02 09:31:00,74.0,74.0,29.94,WSW,237,5.0,8.0,100,0.13,,---,1.47,VWS V14.01,2013-09-02 13:31:00,
2013-09-02 09:36:00,74.2,74.2,29.94,WSW,258,11.0,13.0,100,0.14,,---,1.48,VWS V14.01,2013-09-02 13:36:00,
2013-09-02 09:41:00,74.8,74.8,29.94,WSW,253,7.0,16.0,100,0.14,,---,1.48,VWS V14.01,2013-09-02 13:41:00,
2013-09-02 09:46:00,75.1,75.1,29.94,WSW,244,8.0,16.0,100,0.14,,---,1.48,VWS V14.01,2013-09-02 13:46:00,
2013-09-02 09:51:00,75.2,75.2,29.94,SW,230,10.0,16.0,100,0.14,,---,1.48,VWS V14.01,2013-09-02 13:51:00,
2013-09-02 09:56:00,75.4,75.4,29.94,SW,222,6.0,16.0,100,0.14,,---,1.48,VWS V14.01,2013-09-02 13:56:00,
2013-09-02 10:00:00,75.5,75.5,29.94,SSW,209,5.0,16.0,100,0.14,,---,1.48,VWS V14.01,2013-09-02 14:00:00,
2013-09-02 10:01:00,75.5,75.5,29.94,SSW,208,2.0,5.0,100,0.13,,---,1.48,VWS V14.01,2013-09-02 14:01:00,
2013-09-02 10:06:00,75.8,75.8,29.94,SSW,193,3.0,8.0,100,0.13,,---,1.48,VWS V14.01,2013-09-02 14:06:00,
2013-09-02 10:11:00,76.0,76.0,29.94,SW,214,8.0,9.0,100,0.13,,---,1.48,VWS V14.01,2013-09-02 14:11:00,
2013-09-02 10:16:00,76.4,76.4,29.94,SSW,194,0.0,9.0,100,0.13,,---,1.48,VWS V14.01,2013-09-02 14:16:00,
2013-09-02 10:21:00,76.7,76.7,29.94,South,185,0.0,9.0,100,0.13,,---,1.48,VWS V14.01,2013-09-02 14:21:00,
2013-09-02 10:26:00,77.0,77.0,29.95,South,170,0.0,9.0,100,0.13,,---,1.48,VWS V14.01,2013-09-02 14:26:00,
2013-09-02 10:30:00,77.4,77.4,29.94,SSW,197,0.0,9.0,100,0.13,,---,1.48,VWS V14.01,2013-09-02 14:30:00,
2013-09-02 10:31:00,77.4,77.4,29.94,SSW,196,2.0,2.0,100,0.02,,---,1.48,VWS V14.01,2013-09-02 14:31:00,
2013-09-02 10:36:00,77.5,77.5,29.94,South,188,2.0,5.0,100,0.02,,---,1.48,VWS V14.01,2013-09-02 14:36:00,
2013-09-02 10:41:00,77.7,77.7,29.94,SSW,193,2.0,9.0,100,0.02,,---,1.48,VWS V14.01,2013-09-02 14:41:00,
2013-09-02 10:46:00,77.7,77.7,29.95,South,188,3.0,9.0,100,0.02,,---,1.48,VWS V14.01,2013-09-02 14:46:00,
2013-09-02 10:51:00,77.7,77.7,29.94,South,187,4.0,9.0,100,0.02,,---,1.48,VWS V14.01,2013-09-02 14:51:00,
2013-09-02 10:56:00,77.8,77.8,29.94,SSW,201,4.0,9.0,100,0.02,,---,1.48,VWS V14.01,2013-09-02 14:56:00,
2013-09-02 11:00:00,77.8,77.8,29.94,SSW,202,5.0,9.0,100,0.02,,---,1.48,VWS V14.01,2013-09-02 15:00:00,
2013-09-02 11:01:00,77.8,77.8,29.94,SSW,202,5.0,9.0,100,0.02,,---,0.00,VWS V14.01,2013-09-02 15:01:00,
2013-09-02 11:17:00,79.7,79.7,29.95,SW,236,10.0,10.0,100,0.00,,---,1.48,VWS V14.01,2013-09-02 15:17:00,
2013-09-02 11:22:00,79.9,79.9,29.95,WSW,241,14.0,16.0,100,0.00,,---,1.48,VWS V14.01,2013-09-02 15:22:00,
2013-09-02 11:27:00,80.1,80.1,29.95,WSW,238,13.0,16.0,100,0.00,,---,1.48,VWS V14.01,2013-09-02 15:27:00,
2013-09-02 11:30:00,80.0,80.0,29.95,SW,230,13.0,16.0,100,0.00,,---,1.48,VWS V14.01,2013-09-02 15:30:00,
2013-09-02 11:32:00,80.0,80.0,29.95,SW,226,9.0,15.0,100,0.00,,---,1.48,VWS V14.01,2013-09-02 15:32:00,
2013-09-02 11:37:00,80.1,80.1,29.95,WSW,240,9.0,16.0,100,0.00,,---,1.48,VWS V14.01,2013-09-02 15:37:00,
2013-09-02 11:42:00,80.3,80.3,29.95,SW,234,10.0,16.0,100,0.00,,---,1.48,VWS V14.01,2013-09-02 15:42:00,
2013-09-02 11:47:00,80.2,80.2,29.94,WSW,239,12.0,17.0,100,0.00,,---,1.48,VWS V14.01,2013-09-02 15:47:00,
2013-09-02 11:52:00,80.4,80.4,29.94,SW,228,9.0,17.0,100,0.00,,---,1.48,VWS V14.01,2013-09-02 15:52:00,
2013-09-02 11:57:00,80.5,80.5,29.94,SW,216,9.0,17.0,100,0.00,,---,1.48,VWS V14.01,2013-09-02 15:57:00,
2013-09-02 12:00:00,80.8,80.8,29.94,SW,230,18.0,18.0,100,0.00,,---,1.48,VWS V14.01,2013-09-02 16:00:00,
2013-09-02 12:02:00,80.8,80.8,29.94,SW,230,14.0,18.0,100,0.00,,---,1.48,VWS V14.01,2013-09-02 16:02:00,
2013-09-02 12:07:00,81.0,81.0,29.94,SW,232,8.0,18.0,100,0.00,,---,1.48,VWS V14.01,2013-09-02 16:07:00,
2013-09-02 12:17:00,81.2,81.2,29.93,SW,230,9.0,9.0,100,0.00,,---,1.48,VWS V14.01,2013-09-02 16:17:00,
2013-09-02 12:22:00,81.6,81.6,29.93,SW,233,12.0,17.0,100,0.00,,---,1.48,VWS V14.01,2013-09-02 16:22:00,
2013-09-02 12:27:00,81.3,81.3,29.93,SW,217,13.0,18.0,100,0.00,,---,1.48,VWS V14.01,2013-09-02 16:27:00,
2013-09-02 12:34:00,81.2,81.2,29.93,SW,225,12.0,18.0,100,0.00,,---,1.48,VWS V14.01,2013-09-02 16:34:00,
2013-09-02 12:39:00,81.5,81.5,29.93,SW,220,12.0,17.0,100,0.00,,---,1.48,VWS V14.01,2013-09-02 16:39:00,
2013-09-02 12:44:00,81.7,81.7,29.93,SW,227,9.0,18.0,100,0.00,,---,1.48,VWS V14.01,2013-09-02 16:44:00,
2013-09-02 12:49:00,81.7,81.7,29.93,SW,223,12.0,19.0,100,0.00,,---,1.48,VWS V14.01,2013-09-02 16:49:00,
2013-09-02 12:54:00,81.7,81.7,29.93,SW,228,13.0,19.0,100,0.00,,---,1.48,VWS V14.01,2013-09-02 16:54:00,
2013-09-02 12:59:00,81.9,81.9,29.93,SW,216,16.0,19.0,100,0.00,,---,1.48,VWS V14.01,2013-09-02 16:59:00,
2013-09-02 13:04:00,81.9,81.9,29.92,SW,236,16.0,23.0,100,0.00,,---,1.48,VWS V14.01,2013-09-02 17:04:00,
2013-09-02 13:09:00,82.1,82.1,29.92,SW,228,12.0,23.0,100,0.00,,---,1.48,VWS V14.01,2013-09-02 17:09:00,
2013-09-02 13:14:00,82.2,82.2,29.92,SSW,213,16.0,23.0,100,0.00,,---,1.48,VWS V14.01,2013-09-02 17:14:00,
2013-09-02 13:19:00,82.2,82.2,29.92,SW,214,10.0,23.0,100,0.00,,---,1.48,VWS V14.01,2013-09-02 17:19:00,
2013-09-02 13:24:00,82.3,82.3,29.92,SW,225,13.0,23.0,100,0.00,,---,1.48,VWS V14.01,2013-09-02 17:24:00,
2013-09-02 13:29:00,82.5,82.5,29.92,SSW,213,13.0,23.0,100,0.00,,---,1.48,VWS V14.01,2013-09-02 17:29:00,
2013-09-02 13:34:00,82.7,82.7,29.92,SW,231,16.0,17.0,100,0.00,,---,1.48,VWS V14.01,2013-09-02 17:34:00,
2013-09-02 13:39:00,82.5,82.5,29.92,SW,227,13.0,19.0,100,0.00,,---,1.48,VWS V14.01,2013-09-02 17:39:00,
2013-09-02 13:44:00,82.7,82.7,29.91,SW,223,16.0,22.0,100,0.00,,---,1.48,VWS V14.01,2013-09-02 17:44:00,
2013-09-02 13:49:00,82.7,82.7,29.91,WSW,241,15.0,22.0,100,0.00,,---,1.48,VWS V14.01,2013-09-02 17:49:00,
2013-09-02 13:54:00,82.7,82.7,29.91,WSW,238,15.0,22.0,100,0.00,,---,1.48,VWS V14.01,2013-09-02 17:54:00,
2013-09-02 13:59:00,82.9,82.9,29.91,SW,235,17.0,22.0,100,0.00,,---,1.48,VWS V14.01,2013-09-02 17:59:00,
2013-09-02 14:04:00,82.9,82.9,29.90,SW,227,15.0,21.0,100,0.00,,---,1.48,VWS V14.01,2013-09-02 18:04:00,
2013-09-02 14:09:00,82.9,82.9,29.90,SW,236,17.0,21.0,100,0.00,,---,1.48,VWS V14.01,2013-09-02 18:09:00,
2013-09-02 14:14:00,82.8,82.8,29.90,SW,234,15.0,21.0,100,0.00,,---,1.48,VWS V14.01,2013-09-02 18:14:00,
2013-09-02 14:19:00,82.7,82.7,29.90,SW,228,10.0,21.0,100,0.00,,---,1.48,VWS V14.01,2013-09-02 18:19:00,
2013-09-02 14:24:00,82.9,82.9,29.90,SW,232,14.0,21.0,100,0.00,,---,1.48,VWS V14.01,2013-09-02 18:24:00,
2013-09-02 14:29:00,83.0,83.0,29.90,SSW,211,11.0,21.0,100,0.00,,---,1.48,VWS V14.01,2013-09-02 18:29:00,
2013-09-02 14:34:00,83.1,83.1,29.90,SW,215,14.0,16.0,100,0.00,,---,1.48,VWS V14.01,2013-09-02 18:34:00,
2013-09-02 14:39:00,83.1,83.1,29.90,SW,227,11.0,19.0,100,0.00,,---,1.48,VWS V14.01,2013-09-02 18:39:00,
2013-09-02 14:44:00,83.1,83.1,29.89,SW,219,11.0,19.0,100,0.00,,---,1.48,VWS V14.01,2013-09-02 18:44:00,
2013-09-02 14:49:00,83.2,83.2,29.89,SSW,213,8.0,19.0,100,0.00,,---,1.48,VWS V14.01,2013-09-02 18:49:00,
2013-09-02 14:54:00,83.3,83.3,29.89,SW,225,9.0,19.0,100,0.00,,---,1.48,VWS V14.01,2013-09-02 18:54:00,
2013-09-02 14:59:00,83.3,83.3,29.89,SW,226,11.0,19.0,100,0.00,,---,1.48,VWS V14.01,2013-09-02 18:59:00,
2013-09-02 15:04:00,83.2,83.2,29.89,SW,217,12.0,17.0,100,0.00,,---,1.48,VWS V14.01,2013-09-02 19:04:00,
2013-09-02 15:09:00,83.2,83.2,29.89,SSW,205,9.0,17.0,100,0.00,,---,1.48,VWS V14.01,2013-09-02 19:09:00,
2013-09-02 15:14:00,83.1,83.1,29.88,SSW,213,11.0,18.0,100,0.00,,---,1.48,VWS V14.01,2013-09-02 19:14:00,
2013-09-02 15:19:00,83.1,83.1,29.89,SW,220,11.0,18.0,100,0.00,,---,1.48,VWS V14.01,2013-09-02 19:19:00,
2013-09-02 15:24:00,83.0,83.0,29.89,SW,228,13.0,20.0,100,0.00,,---,1.48,VWS V14.01,2013-09-02 19:24:00,
2013-09-02 15:29:00,83.0,83.0,29.88,SSW,207,14.0,20.0,100,0.00,,---,1.48,VWS V14.01,2013-09-02 19:29:00,
2013-09-02 15:34:00,82.8,82.8,29.87,SSW,210,18.0,20.0,100,0.00,,---,1.48,VWS V14.01,2013-09-02 19:34:00,
2013-09-02 15:39:00,82.6,82.6,29.87,SW,219,12.0,24.0,100,0.00,,---,1.48,VWS V14.01,2013-09-02 19:39:00,
2013-09-02 15:44:00,82.7,82.7,29.87,SW,218,12.0,24.0,100,0.00,,---,1.48,VWS V14.01,2013-09-02 19:44:00,
2013-09-02 15:49:00,82.7,82.7,29.87,SW,216,17.0,24.0,100,0.00,,---,1.48,VWS V14.01,2013-09-02 19:49:00,
2013-09-02 15:54:00,82.5,82.5,29.87,SW,230,12.0,24.0,100,0.00,,---,1.48,VWS V14.01,2013-09-02 19:54:00,
2013-09-02 15:59:00,82.5,82.5,29.88,SW,223,13.0,24.0,100,0.00,,---,1.48,VWS V14.01,2013-09-02 19:59:00,
2013-09-02 16:04:00,82.4,82.4,29.88,SW,221,12.0,17.0,100,0.00,,---,1.48,VWS V14.01,2013-09-02 20:04:00,
2013-09-02 16:09:00,82.3,82.3,29.88,SW,229,11.0,17.0,100,0.00,,---,1.48,VWS V14.01,2013-09-02 20:09:00,
2013-09-02 16:14:00,82.3,82.3,29.88,SW,216,12.0,17.0,100,0.00,,---,1.48,VWS V14.01,2013-09-02 20:14:00,
2013-09-02 16:19:00,82.3,82.3,29.88,SW,228,11.0,17.0,100,0.00,,---,1.48,VWS V14.01,2013-09-02 20:19:00,
2013-09-02 16:24:00,82.2,82.2,29.87,SW,229,14.0,17.0,100,0.00,,---,1.48,VWS V14.01,2013-09-02 20:24:00,
2013-09-02 16:29:00,82.2,82.2,29.88,SW,222,15.0,17.0,100,0.00,,---,1.48,VWS V14.01,2013-09-02 20:29:00,
2013-09-02 16:34:00,82.2,82.2,29.88,SW,225,11.0,13.0,100,0.00,,---,1.48,VWS V14.01,2013-09-02 20:34:00,
2013-09-02 16:39:00,82.3,82.3,29.88,SW,229,14.0,16.0,100,0.00,,---,1.48,VWS V14.01,2013-09-02 20:39:00,
2013-09-02 16:44:00,82.1,82.1,29.88,SW,235,14.0,18.0,100,0.00,,---,1.48,VWS V14.01,2013-09-02 20:44:00,
2013-09-02 16:49:00,82.1,82.1,29.88,SW,215,12.0,18.0,100,0.00,,---,1.48,VWS V14.01,2013-09-02 20:49:00,
2013-09-02 16:54:00,82.0,82.0,29.88,SW,224,12.0,20.0,100,0.00,,---,1.48,VWS V14.01,2013-09-02 20:54:00,
2013-09-02 16:59:00,82.0,82.0,29.87,WSW,242,14.0,20.0,100,0.00,,---,1.48,VWS V14.01,2013-09-02 20:59:00,
2013-09-02 17:04:00,82.0,82.0,29.88,WSW,242,11.0,14.0,100,0.00,,---,1.48,VWS V14.01,2013-09-02 21:04:00,
2013-09-02 17:09:00,82.0,82.0,29.88,WSW,238,11.0,14.0,100,0.00,,---,1.48,VWS V14.01,2013-09-02 21:09:00,
2013-09-02 17:14:00,81.9,81.9,29.88,WSW,242,9.0,14.0,100,0.00,,---,1.48,VWS V14.01,2013-09-02 21:14:00,
2013-09-02 17:19:00,81.8,81.8,29.88,WSW,250,7.0,14.0,100,0.00,,---,1.48,VWS V14.01,2013-09-02 21:19:00,
2013-09-02 17:24:00,81.5,81.5,29.87,SW,229,13.0,14.0,100,0.00,,---,1.48,VWS V14.01,2013-09-02 21:24:00,
2013-09-02 17:29:00,81.2,81.2,29.87,WSW,239,9.0,14.0,100,0.00,,---,1.48,VWS V14.01,2013-09-02 21:29:00,
2013-09-02 17:34:00,81.2,81.2,29.87,SW,219,8.0,10.0,100,0.00,,---,1.48,VWS V14.01,2013-09-02 21:34:00,
2013-09-02 17:39:00,81.4,81.4,29.87,SW,226,9.0,12.0,100,0.00,,---,1.48,VWS V14.01,2013-09-02 21:39:00,
2013-09-02 17:44:00,81.4,81.4,29.87,SW,228,9.0,12.0,100,0.00,,---,1.48,VWS V14.01,2013-09-02 21:44:00,
2013-09-02 17:49:00,81.2,81.2,29.86,SW,228,9.0,13.0,100,0.00,,---,1.48,VWS V14.01,2013-09-02 21:49:00,
2013-09-02 17:54:00,81.0,81.0,29.87,SW,214,6.0,13.0,100,0.00,,---,1.48,VWS V14.01,2013-09-02 21:54:00,
2013-09-02 17:59:00,80.8,80.8,29.86,SW,222,10.0,13.0,100,0.00,,---,1.48,VWS V14.01,2013-09-02 21:59:00,
2013-09-02 18:04:00,80.7,80.7,29.87,SW,229,7.0,10.0,100,0.00,,---,1.48,VWS V14.01,2013-09-02 22:04:00,
2013-09-02 18:09:00,80.7,80.7,29.86,SW,231,13.0,13.0,100,0.00,,---,1.48,VWS V14.01,2013-09-02 22:09:00,
2013-09-02 18:14:00,80.7,80.7,29.86,SW,221,8.0,14.0,100,0.00,,---,1.48,VWS V14.01,2013-09-02 22:14:00,
2013-09-02 18:19:00,80.6,80.6,29.86,WSW,237,7.0,14.0,100,0.00,,---,1.48,VWS V14.01,2013-09-02 22:19:00,
2013-09-02 18:24:00,80.4,80.4,29.86,SW,233,9.0,14.0,100,0.00,,---,1.48,VWS V14.01,2013-09-02 22:24:00,
2013-09-02 18:29:00,80.3,80.3,29.86,WSW,239,10.0,14.0,100,0.00,,---,1.48,VWS V14.01,2013-09-02 22:29:00,
2013-09-02 18:34:00,80.2,80.2,29.86,SW,226,11.0,14.0,100,0.00,,---,1.48,VWS V14.01,2013-09-02 22:34:00,
2013-09-02 18:39:00,80.2,80.2,29.85,WSW,239,13.0,14.0,100,0.00,,---,1.48,VWS V14.01,2013-09-02 22:39:00,
2013-09-02 18:44:00,80.1,80.1,29.85,SW,221,16.0,18.0,100,0.00,,---,1.48,VWS V14.01,2013-09-02 22:44:00,
2013-09-02 18:49:00,80.1,80.1,29.86,SSW,213,11.0,18.0,100,0.00,,---,1.48,VWS V14.01,2013-09-02 22:49:00,
2013-09-02 18:54:00,80.0,80.0,29.86,SW,230,12.0,18.0,100,0.00,,---,1.48,VWS V14.01,2013-09-02 22:54:00,
2013-09-02 18:59:00,79.9,79.9,29.86,SW,230,9.0,18.0,100,0.00,,---,1.48,VWS V14.01,2013-09-02 22:59:00,
2013-09-02 19:04:00,79.8,79.8,29.86,SW,226,15.0,22.0,100,0.00,,---,1.48,VWS V14.01,2013-09-02 23:04:00,
2013-09-02 19:09:00,79.7,79.7,29.86,SW,232,13.0,22.0,100,0.00,,---,1.48,VWS V14.01,2013-09-02 23:09:00,
2013-09-02 19:14:00,79.6,79.6,29.86,SW,222,12.0,22.0,100,0.00,,---,1.48,VWS V14.01,2013-09-02 23:14:00,
2013-09-02 19:19:00,79.5,79.5,29.86,SW,230,11.0,22.0,100,0.00,,---,1.48,VWS V14.01,2013-09-02 23:19:00,
2013-09-02 19:24:00,79.5,79.5,29.86,SW,227,11.0,22.0,100,0.00,,---,1.48,VWS V14.01,2013-09-02 23:24:00,
2013-09-02 19:29:00,79.4,79.4,29.86,SW,233,12.0,22.0,100,0.00,,---,1.48,VWS V14.01,2013-09-02 23:29:00,
2013-09-02 19:34:00,79.5,79.5,29.86,SW,222,15.0,19.0,100,0.00,,---,1.48,VWS V14.01,2013-09-02 23:34:00,
2013-09-02 19:39:00,79.4,79.4,29.86,SW,222,13.0,19.0,100,0.00,,---,1.48,VWS V14.01,2013-09-02 23:39:00,
2013-09-02 19:44:00,79.4,79.4,29.86,SW,236,15.0,21.0,100,0.00,,---,1.48,VWS V14.01,2013-09-02 23:44:00,
2013-09-02 19:49:00,79.4,79.4,29.86,SW,229,14.0,21.0,100,0.00,,---,1.48,VWS V14.01,2013-09-02 23:49:00,
2013-09-02 19:54:00,79.4,79.4,29.86,SW,224,11.0,21.0,100,0.00,,---,1.48,VWS V14.01,2013-09-02 23:54:00,
2013-09-02 19:59:00,79.4,79.4,29.87,SW,232,17.0,21.0,100,0.00,,---,1.48,VWS V14.01,2013-09-02 23:59:00,
2013-09-02 20:04:00,79.5,79.5,29.87,SW,222,19.0,22.0,100,0.00,,---,1.48,VWS V14.01,2013-09-03 00:04:00,
2013-09-02 20:09:00,79.5,79.5,29.87,WSW,237,14.0,22.0,100,0.00,,---,1.48,VWS V14.01,2013-09-03 00:09:00,
2013-09-02 20:14:00,79.5,79.5,29.87,SW,230,14.0,22.0,100,0.00,,---,1.48,VWS V14.01,2013-09-03 00:14:00,
2013-09-02 20:19:00,79.5,79.5,29.87,SW,233,13.0,22.0,100,0.00,,---,1.48,VWS V14.01,2013-09-03 00:19:00,
2013-09-02 20:24:00,79.5,79.5,29.87,SW,227,14.0,23.0,100,0.00,,---,1.48,VWS V14.01,2013-09-03 00:24:00,
2013-09-02 20:29:00,79.6,79.6,29.87,SW,229,13.0,25.0,100,0.00,,---,1.48,VWS V14.01,2013-09-03 00:29:00,
2013-09-02 20:34:00,79.6,79.6,29.87,SW,230,17.0,21.0,100,0.00,,---,1.48,VWS V14.01,2013-09-03 00:34:00,
2013-09-02 20:39:00,79.6,79.6,29.87,SW,221,18.0,25.0,100,0.00,,---,1.48,VWS V14.01,2013-09-03 00:39:00,
2013-09-02 20:44:00,79.6,79.6,29.87,SW,231,22.0,27.0,100,0.00,,---,1.48,VWS V14.01,2013-09-03 00:44:00,
2013-09-02 20:49:00,79.6,79.6,29.87,SW,231,16.0,27.0,100,0.00,,---,1.48,VWS V14.01,2013-09-03 00:49:00,
2013-09-02 20:54:00,79.6,79.6,29.88,SW,229,16.0,27.0,100,0.00,,---,1.48,VWS V14.01,2013-09-03 00:54:00,
2013-09-02 20:59:00,79.5,79.5,29.88,WSW,238,15.0,27.0,100,0.00,,---,1.48,VWS V14.01,2013-09-03 00:59:00,
2013-09-02 21:04:00,79.6,79.6,29.88,SW,234,20.0,21.0,100,0.00,,---,1.48,VWS V14.01,2013-09-03 01:04:00,
2013-09-02 21:09:00,79.6,79.6,29.88,SW,226,21.0,23.0,100,0.00,,---,1.48,VWS V14.01,2013-09-03 01:09:00,
2013-09-02 21:14:00,79.7,79.7,29.88,WSW,237,13.0,24.0,100,0.00,,---,1.48,VWS V14.01,2013-09-03 01:14:00,
2013-09-02 21:19:00,79.7,79.7,29.88,WSW,241,19.0,24.0,100,0.00,,---,1.48,VWS V14.01,2013-09-03 01:19:00,
2013-09-02 21:24:00,79.7,79.7,29.88,WSW,238,17.0,24.0,100,0.00,,---,1.48,VWS V14.01,2013-09-03 01:24:00,
2013-09-02 21:29:00,79.7,79.7,29.88,WSW,238,16.0,24.0,100,0.00,,---,1.48,VWS V14.01,2013-09-03 01:29:00,
2013-09-02 21:34:00,79.7,79.7,29.88,SW,226,16.0,22.0,100,0.00,,---,1.48,VWS V14.01,2013-09-03 01:34:00,
2013-09-02 21:39:00,79.8,79.8,29.89,SW,231,18.0,26.0,100,0.00,,---,1.48,VWS V14.01,2013-09-03 01:39:00,
2013-09-02 21:44:00,79.8,79.8,29.89,SW,233,21.0,26.0,100,0.00,,---,1.48,VWS V14.01,2013-09-03 01:44:00,
2013-09-02 21:49:00,79.8,79.8,29.89,SW,225,15.0,26.0,100,0.00,,---,1.48,VWS V14.01,2013-09-03 01:49:00,
2013-09-02 21:54:00,79.8,79.8,29.89,SW,232,17.0,26.0,100,0.00,,---,1.48,VWS V14.01,2013-09-03 01:54:00,
2013-09-02 21:59:00,79.8,79.8,29.89,SW,234,18.0,26.0,100,0.00,,---,1.48,VWS V14.01,2013-09-03 01:59:00,
2013-09-02 22:04:00,79.8,79.8,29.89,WSW,238,14.0,18.0,100,0.00,,---,1.48,VWS V14.01,2013-09-03 02:04:00,
2013-09-02 22:09:00,79.8,79.8,29.89,SW,233,16.0,19.0,100,0.00,,---,1.48,VWS V14.01,2013-09-03 02:09:00,
2013-09-02 22:14:00,79.8,79.8,29.89,WSW,242,15.0,24.0,100,0.00,,---,1.48,VWS V14.01,2013-09-03 02:14:00,
2013-09-02 22:19:00,79.8,79.8,29.90,SW,236,13.0,24.0,100,0.00,,---,1.48,VWS V14.01,2013-09-03 02:19:00,
2013-09-02 22:24:00,79.8,79.8,29.89,WSW,237,15.0,24.0,100,0.00,,---,1.48,VWS V14.01,2013-09-03 02:24:00,
2013-09-02 22:29:00,79.8,79.8,29.89,WSW,246,13.0,24.0,100,0.00,,---,1.48,VWS V14.01,2013-09-03 02:29:00,
2013-09-02 22:34:00,79.7,79.7,29.89,SW,236,12.0,20.0,100,0.00,,---,1.48,VWS V14.01,2013-09-03 02:34:00,
2013-09-02 22:39:00,79.7,79.7,29.89,SW,236,14.0,20.0,100,0.00,,---,1.48,VWS V14.01,2013-09-03 02:39:00,
2013-09-02 22:44:00,79.6,79.6,29.90,SW,236,14.0,20.0,100,0.00,,---,1.48,VWS V14.01,2013-09-03 02:44:00,
2013-09-02 22:49:00,79.6,79.6,29.89,SW,228,13.0,20.0,100,0.00,,---,1.48,VWS V14.01,2013-09-03 02:49:00,
2013-09-02 22:54:00,79.5,79.5,29.89,WSW,246,9.0,20.0,100,0.00,,---,1.48,VWS V14.01,2013-09-03 02:54:00,
2013-09-02 22:59:00,79.5,79.5,29.90,WSW,239,8.0,20.0,100,0.00,,---,1.48,VWS V14.01,2013-09-03 02:59:00,
2013-09-02 23:04:00,79.4,79.4,29.90,WSW,238,9.0,13.0,100,0.00,,---,1.48,VWS V14.01,2013-09-03 03:04:00,
2013-09-02 23:09:00,79.4,79.4,29.89,SW,235,10.0,18.0,100,0.00,,---,1.48,VWS V14.01,2013-09-03 03:09:00,
2013-09-02 23:14:00,79.4,79.4,29.90,WSW,239,9.0,18.0,100,0.00,,---,1.48,VWS V14.01,2013-09-03 03:14:00,
2013-09-02 23:19:00,79.4,79.4,29.90,WSW,237,14.0,18.0,100,0.00,,---,1.48,VWS V14.01,2013-09-03 03:19:00,
2013-09-02 23:24:00,79.4,79.4,29.89,SW,224,14.0,19.0,100,0.00,,---,1.48,VWS V14.01,2013-09-03 03:24:00,
2013-09-02 23:29:00,79.4,79.4,29.89,SW,231,14.0,20.0,100,0.00,,---,1.48,VWS V14.01,2013-09-03 03:29:00,
2013-09-02 23:34:00,79.4,79.4,29.89,WSW,237,14.0,17.0,100,0.00,,---,1.48,VWS V14.01,2013-09-03 03:34:00,
2013-09-02 23:39:00,79.4,79.4,29.89,SW,233,12.0,19.0,100,0.00,,---,1.48,VWS V14.01,2013-09-03 03:39:00,
2013-09-02 23:44:00,79.4,79.4,29.90,WSW,243,13.0,20.0,100,0.00,,---,1.48,VWS V14.01,2013-09-03 03:44:00,
2013-09-02 23:49:00,79.5,79.5,29.89,SW,236,17.0,20.0,100,0.00,,---,1.48,VWS V14.01,2013-09-03 03:49:00,
2013-09-02 23:54:00,79.5,79.5,29.90,WSW,237,15.0,20.0,100,0.00,,---,1.48,VWS V14.01,2013-09-03 03:54:00,
2013-09-02 23:59:00,79.5,79.5,29.90,WSW,238,11.0,20.0,100,0.00,,---,1.48,VWS V14.01,2013-09-03 03:59:00,